Вернуться в каталог

YAOGAN-30 C

АктивенВоенныеVLEO
NORAD 42947·PAYLOAD·🇨🇳 China

Запущен Sep 29, 2017 с Xichang Satellite Launch Center

Loading…

Ближайшие Пролёты (ближайшие 24 часа)

TLE

СвежийSource: Space-Track

Эпоха: Sep 14, 2026, 07:23 UTC

1 42947U 17058C   26257.30765483  .00002461  00000-0  17210-3 0  9992
2 42947  34.9971 195.7761 0005798 270.8666  89.1379 15.04956246489258

Отслеживайте YAOGAN-30 C в реальном времени с AllMySat

Download on the App Store